When you browse on this site, cookies collect data to enhance your experience and personalize the content and advertising you see.
Visit our Privacy Policy to learn more. By continuing to use the site, you agree to this use of cookies and data.
  • Em Portugal
  • Lista de países
  • Para 7 dias
  • Temperatura da água
  • Mapa do tempo
  • Widgets de tempo
  • user-avatar
    Iniciar Sessão

    Previsão horária em Tamale

    Hoje, 24 Fevereiro, Segunda-feira

    Tempo Temperatura Precipitação Vento Pressão Humidade
    00:00 +29°C° 0 mm 2 m/s 741 mmHg 18%
    01:00 +29°C° 0 mm 2 m/s 741 mmHg 18%
    02:00 +28°C° 0 mm 2 m/s 741 mmHg 18%
    03:00 +27°C° 0 mm 2 m/s 741 mmHg 18%
    04:00 +27°C° 0 mm 2 m/s 741 mmHg 18%
    05:00 +26°C° 0 mm 2 m/s 742 mmHg 17%
    06:00 +26°C° 0 mm 2 m/s 742 mmHg 17%
    07:00 +29°C° 0 mm 3 m/s 743 mmHg 15%
    08:00 +33°C° 0 mm 4 m/s 743 mmHg 12%
    09:00 +35°C° 0 mm 5 m/s 744 mmHg 10%
    10:00 +38°C° 0 mm 4 m/s 743 mmHg 9%
    11:00 +41°C° 0 mm 4 m/s 742 mmHg 8%
    12:00 +43°C° 0 mm 3 m/s 742 mmHg 7%
    13:00 +44°C° 0 mm 3 m/s 741 mmHg 6%
    14:00 +44°C° 0 mm 3 m/s 740 mmHg 6%
    15:00 +45°C° 0 mm 3 m/s 739 mmHg 6%
    16:00 +43°C° 0 mm 3 m/s 739 mmHg 7%
    17:00 +40°C° 0 mm 2 m/s 739 mmHg 8%
    18:00 +37°C° 0 mm 2 m/s 739 mmHg 8%
    19:00 +35°C° 0 mm 2 m/s 739 mmHg 9%
    20:00 +32°C° 0 mm 2 m/s 740 mmHg 10%
    21:00 +30°C° 0 mm 2 m/s 741 mmHg 11%
    22:00 +30°C° 0 mm 2 m/s 741 mmHg 11%
    23:00 +29°C° 0 mm 2 m/s 741 mmHg 12%

    Amanhã, 25 Fevereiro, Terça-feira

    Tempo Temperatura Precipitação Vento Pressão Humidade
    00:00 +28°C° 0 mm 3 m/s 741 mmHg 13%
    01:00 +27°C° 0 mm 2 m/s 741 mmHg 13%
    02:00 +27°C° 0 mm 2 m/s 741 mmHg 14%
    03:00 +26°C° 0 mm 2 m/s 740 mmHg 15%
    04:00 +25°C° 0 mm 1 m/s 741 mmHg 16%
    05:00 +24°C° 0 mm 1 m/s 741 mmHg 17%
    06:00 +23°C° 0 mm 1 m/s 741 mmHg 19%
    07:00 +26°C° 0 mm 2 m/s 742 mmHg 16%
    08:00 +29°C° 0 mm 2 m/s 743 mmHg 14%
    09:00 +33°C° 0 mm 3 m/s 743 mmHg 12%
    10:00 +35°C° 0 mm 3 m/s 743 mmHg 10%
    11:00 +38°C° 0 mm 3 m/s 742 mmHg 9%
    12:00 +40°C° 0 mm 3 m/s 742 mmHg 8%
    13:00 +41°C° 0 mm 2 m/s 741 mmHg 7%
    14:00 +42°C° 0 mm 2 m/s 740 mmHg 7%
    15:00 +42°C° 0 mm 2 m/s 739 mmHg 7%
    16:00 +40°C° 0 mm 1 m/s 739 mmHg 8%
    17:00 +37°C° 0 mm 1 m/s 739 mmHg 9%
    18:00 +35°C° 0 mm 1 m/s 739 mmHg 10%
    19:00 +33°C° 0 mm 1 m/s 740 mmHg 11%
    20:00 +31°C° 0 mm 1 m/s 740 mmHg 12%
    21:00 +29°C° 0 mm 1 m/s 741 mmHg 12%
    22:00 +29°C° 0 mm 1 m/s 741 mmHg 13%
    23:00 +28°C° 0 mm 1 m/s 741 mmHg 13%

    Depois de amanhã, 26 Fevereiro, Quarta-feira

    Tempo Temperatura Precipitação Vento Pressão Humidade
    00:00 +27°C° 0 mm 1 m/s 741 mmHg 14%
    01:00 +26°C° 0 mm 1 m/s 740 mmHg 14%
    02:00 +25°C° 0 mm 1 m/s 740 mmHg 15%
    03:00 +24°C° 0 mm 1 m/s 740 mmHg 16%
    04:00 +24°C° 0 mm 1 m/s 740 mmHg 17%
    05:00 +23°C° 0 mm 1 m/s 740 mmHg 18%
    06:00 +22°C° 0 mm 1 m/s 741 mmHg 19%
    07:00 +26°C° 0 mm 1 m/s 741 mmHg 18%
    08:00 +28°C° 0 mm 0 m/s 742 mmHg 17%
    09:00 +31°C° 0 mm 0 m/s 743 mmHg 16%
    10:00 +35°C° 0 mm 0 m/s 742 mmHg 13%
    11:00 +41°C° 0 mm 1 m/s 742 mmHg 10%
    12:00 +44°C° 0 mm 1 m/s 741 mmHg 7%
    13:00 +43°C° 0 mm 1 m/s 740 mmHg 7%
    14:00 +43°C° 0 mm 1 m/s 739 mmHg 7%
    15:00 +43°C° 0 mm 2 m/s 739 mmHg 7%
    16:00 +40°C° 0 mm 1 m/s 739 mmHg 8%
    17:00 +37°C° 0 mm 1 m/s 739 mmHg 8%
    18:00 +35°C° 0 mm 1 m/s 739 mmHg 9%
    19:00 +33°C° 0 mm 1 m/s 739 mmHg 10%
    20:00 +32°C° 0 mm 1 m/s 740 mmHg 11%
    21:00 +30°C° 0 mm 1 m/s 740 mmHg 11%
    22:00 +29°C° 0 mm 1 m/s 740 mmHg 12%
    23:00 +29°C° 0 mm 1 m/s 740 mmHg 13%

    27 Fevereiro, Quinta-feira

    Tempo Temperatura Precipitação Vento Pressão Humidade
    00:00 +28°C° 0 mm 1 m/s 740 mmHg 13%
    01:00 +27°C° 0 mm 1 m/s 740 mmHg 16%
    02:00 +26°C° 0 mm 1 m/s 740 mmHg 18%
    03:00 +25°C° 0 mm 1 m/s 740 mmHg 20%
    04:00 +24°C° 0 mm 1 m/s 740 mmHg 31%
    05:00 +24°C° 0 mm 1 m/s 740 mmHg 41%
    06:00 +21°C° 0 mm 0 m/s 741 mmHg 52%
    07:00 +26°C° 0 mm 1 m/s 741 mmHg 53%
    08:00 +29°C° 0 mm 1 m/s 742 mmHg 54%
    09:00 +31°C° 0 mm 2 m/s 743 mmHg 55%
    10:00 +35°C° 0 mm 1 m/s 742 mmHg 43%
    11:00 +40°C° 0 mm 1 m/s 742 mmHg 30%
    12:00 +41°C° 0 mm 0 m/s 741 mmHg 18%
    13:00 +42°C° 0 mm 0 m/s 740 mmHg 16%
    14:00 +42°C° 0 mm 0 m/s 740 mmHg 15%
    15:00 +42°C° 0 mm 0 m/s 739 mmHg 13%
    16:00 +40°C° 0 mm 0 m/s 739 mmHg 15%
    17:00 +37°C° 0 mm 0 m/s 739 mmHg 17%
    18:00 +34°C° 0 mm 0 m/s 739 mmHg 19%
    19:00 +33°C° 0 mm 0 m/s 739 mmHg 21%
    20:00 +34°C° 0 mm 1 m/s 740 mmHg 22%
    21:00 +32°C° 0 mm 1 m/s 741 mmHg 23%
    22:00 +31°C° 0 mm 1 m/s 741 mmHg 25%
    23:00 +31°C° 0 mm 1 m/s 741 mmHg 27%

    28 Fevereiro, Sexta-feira

    Tempo Temperatura Precipitação Vento Pressão Humidade
    00:00 +30°C° 0 mm 1 m/s 741 mmHg 29%
    01:00 +29°C° 0 mm 1 m/s 740 mmHg 38%
    02:00 +28°C° 0 mm 1 m/s 740 mmHg 47%
    03:00 +27°C° 0 mm 1 m/s 740 mmHg 56%
    04:00 +26°C° 0 mm 1 m/s 741 mmHg 64%
    05:00 +26°C° 0 mm 1 m/s 741 mmHg 72%
    06:00 +26°C° 0 mm 1 m/s 741 mmHg 80%
    07:00 +28°C° 0 mm 2 m/s 742 mmHg 73%
    08:00 +30°C° 0 mm 2 m/s 743 mmHg 65%
    09:00 +32°C° 0 mm 2 m/s 743 mmHg 57%
    10:00 +37°C° 0 mm 1 m/s 743 mmHg 44%
    11:00 +42°C° 0 mm 1 m/s 742 mmHg 32%
    12:00 +43°C° 0 mm 0 m/s 742 mmHg 19%
    13:00 +43°C° 0 mm 0 m/s 741 mmHg 18%
    14:00 +43°C° 0 mm 0 m/s 740 mmHg 16%
    15:00 +46°C° 0 mm 1 m/s 739 mmHg 15%
    16:00 +43°C° 0 mm 1 m/s 739 mmHg 17%
    17:00 +41°C° 0 mm 1 m/s 739 mmHg 19%
    18:00 +37°C° 0 mm 1 m/s 739 mmHg 21%
    19:00 +36°C° 0 mm 1 m/s 739 mmHg 23%
    20:00 +34°C° 0 mm 1 m/s 740 mmHg 25%
    21:00 +33°C° 0 mm 1 m/s 740 mmHg 26%
    22:00 +32°C° 0 mm 1 m/s 740 mmHg 28%
    23:00 +31°C° 0 mm 1 m/s 740 mmHg 31%

    29 Fevereiro, Sábado

    Tempo Temperatura Precipitação Vento Pressão Humidade
    00:00 +30°C° 0 mm 1 m/s 740 mmHg 33%
    01:00 +29°C° 0 mm 1 m/s 740 mmHg 40%
    02:00 +28°C° 0 mm 1 m/s 739 mmHg 48%
    03:00 +27°C° 0 mm 1 m/s 739 mmHg 55%
    04:00 +27°C° 0 mm 1 m/s 739 mmHg 63%
    05:00 +26°C° 0 mm 1 m/s 740 mmHg 70%
    06:00 +25°C° 0 mm 1 m/s 740 mmHg 78%
    07:00 +28°C° 0 mm 1 m/s 741 mmHg 71%
    08:00 +30°C° 0 mm 2 m/s 741 mmHg 63%
    09:00 +34°C° 0 mm 2 m/s 742 mmHg 55%
    10:00 +37°C° 0 mm 1 m/s 741 mmHg 42%
    11:00 +42°C° 0 mm 1 m/s 741 mmHg 30%
    12:00 +46°C° 0 mm 1 m/s 740 mmHg 17%
    13:00 +46°C° 0 mm 1 m/s 739 mmHg 15%
    14:00 +46°C° 0 mm 1 m/s 738 mmHg 13%
    15:00 +45°C° 0 mm 1 m/s 737 mmHg 12%
    16:00 +43°C° 0 mm 1 m/s 737 mmHg 13%
    17:00 +41°C° 0 mm 1 m/s 737 mmHg 13%
    18:00 +39°C° 0 mm 1 m/s 738 mmHg 14%
    19:00 +36°C° 0 mm 1 m/s 738 mmHg 15%
    20:00 +34°C° 0 mm 1 m/s 738 mmHg 16%
    21:00 +33°C° 0 mm 1 m/s 739 mmHg 17%
    22:00 +32°C° 0 mm 1 m/s 739 mmHg 19%
    23:00 +31°C° 0 mm 1 m/s 739 mmHg 22%
    Mostrar mais